When you browse on this site, cookies collect data to enhance your experience and personalize the content and advertising you see.
Visit our Privacy Policy to learn more. By continuing to use the site, you agree to this use of cookies and data.
  • En España
  • Lista de países
  • Para 7 días
  • Temperatura del agua
  • Mapa Satelital
  • El tiempo en el mapa
  • Informadores
  • user-avatar
    Iniciar sesión

    Tiempo cada hora Taldy Kurgan

    Hoy, 19 Junio, Miércoles

    Tiempo Temperatura Precipitaciones Viento Presión Humedad
    00:00 +20°C° 0 mm 1 mps 710 mmHg 46%
    01:00 +20°C° 0 mm 1 mps 710 mmHg 45%
    02:00 +20°C° 0 mm 1 mps 710 mmHg 45%
    03:00 +20°C° 0 mm 1 mps 710 mmHg 48%
    04:00 +19°C° 0 mm 1 mps 710 mmHg 51%
    05:00 +19°C° 0 mm 1 mps 710 mmHg 53%
    06:00 +21°C° 0 mm 1 mps 710 mmHg 47%
    07:00 +23°C° 0 mm 1 mps 710 mmHg 40%
    08:00 +25°C° 0 mm 1 mps 711 mmHg 33%
    09:00 +26°C° 0 mm 2 mps 711 mmHg 30%
    10:00 +28°C° 0 mm 2 mps 711 mmHg 27%
    11:00 +29°C° 0 mm 3 mps 711 mmHg 24%
    12:00 +29°C° 0 mm 3 mps 710 mmHg 24%
    13:00 +30°C° 0 mm 3 mps 710 mmHg 23%
    14:00 +31°C° 0 mm 3 mps 710 mmHg 22%
    15:00 +30°C° 0 mm 3 mps 710 mmHg 23%
    16:00 +30°C° 0 mm 3 mps 710 mmHg 24%
    17:00 +30°C° 0 mm 3 mps 710 mmHg 25%
    18:00 +28°C° 0 mm 3 mps 710 mmHg 27%
    19:00 +25°C° 0 mm 3 mps 709 mmHg 30%
    20:00 +22°C° 0 mm 3 mps 709 mmHg 33%
    21:00 +21°C° 0 mm 3 mps 709 mmHg 33%
    22:00 +20°C° 0 mm 2 mps 709 mmHg 33%
    23:00 +20°C° 0 mm 2 mps 710 mmHg 34%

    Mañana, 20 Junio, Jueves

    Tiempo Temperatura Precipitaciones Viento Presión Humedad
    00:00 +19°C° 0 mm 2 mps 709 mmHg 37%
    01:00 +19°C° 0 mm 2 mps 709 mmHg 40%
    02:00 +19°C° 0 mm 1 mps 709 mmHg 42%
    03:00 +19°C° 0 mm 1 mps 710 mmHg 44%
    04:00 +20°C° 0 mm 1 mps 710 mmHg 46%
    05:00 +20°C° 0 mm 1 mps 711 mmHg 48%
    06:00 +22°C° 0 mm 1 mps 711 mmHg 42%
    07:00 +25°C° 0 mm 1 mps 711 mmHg 35%
    08:00 +25°C° 0 mm 0 mps 712 mmHg 29%
    09:00 +28°C° 0 mm 1 mps 712 mmHg 25%
    10:00 +29°C° 0 mm 2 mps 712 mmHg 22%
    11:00 +31°C° 0 mm 2 mps 711 mmHg 18%
    12:00 +31°C° 0 mm 3 mps 711 mmHg 18%
    13:00 +31°C° 0 mm 3 mps 711 mmHg 17%
    14:00 +33°C° 0 mm 3 mps 711 mmHg 17%
    15:00 +33°C° 0 mm 3 mps 710 mmHg 17%
    16:00 +32°C° 0 mm 4 mps 710 mmHg 17%
    17:00 +32°C° 0 mm 4 mps 710 mmHg 18%
    18:00 +29°C° 0 mm 3 mps 710 mmHg 20%
    19:00 +26°C° 0 mm 3 mps 710 mmHg 22%
    20:00 +23°C° 0 mm 2 mps 710 mmHg 25%
    21:00 +21°C° 0 mm 2 mps 710 mmHg 28%
    22:00 +20°C° 0 mm 2 mps 710 mmHg 31%
    23:00 +19°C° 0 mm 2 mps 709 mmHg 34%

    Pasado mañana, 21 Junio, Viernes

    Tiempo Temperatura Precipitaciones Viento Presión Humedad
    00:00 +19°C° 0 mm 2 mps 709 mmHg 36%
    01:00 +19°C° 0 mm 2 mps 709 mmHg 38%
    02:00 +18°C° 0 mm 2 mps 709 mmHg 41%
    03:00 +19°C° 0 mm 2 mps 709 mmHg 42%
    04:00 +19°C° 0 mm 2 mps 709 mmHg 43%
    05:00 +19°C° 0 mm 2 mps 709 mmHg 45%
    06:00 +23°C° 0 mm 2 mps 710 mmHg 39%
    07:00 +26°C° 0 mm 2 mps 710 mmHg 33%
    08:00 +29°C° 0 mm 2 mps 710 mmHg 27%
    09:00 +30°C° 0 mm 2 mps 710 mmHg 24%
    10:00 +32°C° 0 mm 2 mps 710 mmHg 21%
    11:00 +34°C° 0 mm 2 mps 710 mmHg 17%
    12:00 +35°C° 0 mm 2 mps 710 mmHg 17%
    13:00 +35°C° 0 mm 2 mps 710 mmHg 16%
    14:00 +35°C° 0 mm 2 mps 709 mmHg 16%
    15:00 +35°C° 0 mm 3 mps 709 mmHg 16%
    16:00 +35°C° 0 mm 3 mps 709 mmHg 17%
    17:00 +35°C° 0 mm 3 mps 708 mmHg 18%
    18:00 +31°C° 0 mm 3 mps 708 mmHg 23%
    19:00 +28°C° 0 mm 4 mps 708 mmHg 27%
    20:00 +26°C° 0 mm 4 mps 708 mmHg 32%
    21:00 +25°C° 0 mm 4 mps 708 mmHg 33%
    22:00 +25°C° 0 mm 3 mps 707 mmHg 35%
    23:00 +24°C° 0 mm 3 mps 707 mmHg 36%

    22 Junio, Sábado

    Tiempo Temperatura Precipitaciones Viento Presión Humedad
    00:00 +24°C° 0 mm 3 mps 707 mmHg 36%
    01:00 +24°C° 0 mm 3 mps 707 mmHg 35%
    02:00 +24°C° 0 mm 2 mps 707 mmHg 34%
    03:00 +24°C° 0 mm 2 mps 707 mmHg 34%
    04:00 +24°C° 0 mm 2 mps 707 mmHg 34%
    05:00 +24°C° 0 mm 2 mps 707 mmHg 34%
    06:00 +25°C° 0 mm 2 mps 708 mmHg 34%
    07:00 +26°C° 0 mm 2 mps 708 mmHg 34%
    08:00 +27°C° 0 mm 2 mps 709 mmHg 34%
    09:00 +29°C° 0 mm 2 mps 709 mmHg 32%
    10:00 +30°C° 0 mm 2 mps 710 mmHg 29%
    11:00 +31°C° 0 mm 2 mps 710 mmHg 27%
    12:00 +30°C° 0 mm 3 mps 710 mmHg 30%
    13:00 +30°C° 0 mm 4 mps 710 mmHg 33%
    14:00 +29°C° 0 mm 5 mps 710 mmHg 36%
    15:00 +29°C° 0 mm 4 mps 710 mmHg 36%
    16:00 +29°C° 0 mm 3 mps 710 mmHg 36%
    17:00 +29°C° 0 mm 2 mps 710 mmHg 36%
    18:00 +27°C° 0.1 mm 2 mps 710 mmHg 42%
    19:00 +25°C° 0.1 mm 3 mps 709 mmHg 49%
    20:00 +22°C° 0.1 mm 3 mps 709 mmHg 55%
    21:00 +21°C° 0 mm 3 mps 709 mmHg 55%
    22:00 +21°C° 0 mm 3 mps 709 mmHg 55%
    23:00 +21°C° 0 mm 4 mps 709 mmHg 54%

    23 Junio, Domingo

    Tiempo Temperatura Precipitaciones Viento Presión Humedad
    00:00 +21°C° 0 mm 4 mps 709 mmHg 54%
    01:00 +21°C° 0 mm 4 mps 709 mmHg 53%
    02:00 +21°C° 0 mm 4 mps 709 mmHg 52%
    03:00 +20°C° 0 mm 4 mps 709 mmHg 53%
    04:00 +20°C° 0 mm 4 mps 710 mmHg 53%
    05:00 +20°C° 0 mm 3 mps 710 mmHg 54%
    06:00 +23°C° 0 mm 4 mps 710 mmHg 46%
    07:00 +26°C° 0 mm 5 mps 711 mmHg 38%
    08:00 +29°C° 0 mm 6 mps 712 mmHg 30%
    09:00 +30°C° 0 mm 6 mps 712 mmHg 28%
    10:00 +32°C° 0 mm 6 mps 712 mmHg 26%
    11:00 +33°C° 0 mm 6 mps 712 mmHg 24%
    12:00 +33°C° 0 mm 6 mps 712 mmHg 25%
    13:00 +33°C° 0 mm 6 mps 712 mmHg 27%
    14:00 +33°C° 0 mm 6 mps 712 mmHg 28%
    15:00 +32°C° 0 mm 6 mps 712 mmHg 29%
    16:00 +30°C° 0 mm 6 mps 712 mmHg 31%
    17:00 +30°C° 0 mm 5 mps 712 mmHg 32%
    18:00 +27°C° 0 mm 5 mps 712 mmHg 38%
    19:00 +25°C° 0 mm 5 mps 712 mmHg 43%
    20:00 +22°C° 0 mm 5 mps 712 mmHg 48%
    21:00 +21°C° 0 mm 4 mps 712 mmHg 51%
    22:00 +19°C° 0 mm 3 mps 712 mmHg 54%
    23:00 +18°C° 0 mm 2 mps 712 mmHg 57%

    24 Junio, Lunes

    Tiempo Temperatura Precipitaciones Viento Presión Humedad
    00:00 +17°C° 0 mm 2 mps 712 mmHg 57%
    01:00 +17°C° 0 mm 3 mps 712 mmHg 56%
    02:00 +16°C° 0 mm 3 mps 712 mmHg 56%
    03:00 +16°C° 0 mm 2 mps 712 mmHg 56%
    04:00 +16°C° 0 mm 2 mps 712 mmHg 57%
    05:00 +16°C° 0 mm 2 mps 713 mmHg 58%
    06:00 +18°C° 0 mm 2 mps 713 mmHg 50%
    07:00 +20°C° 0 mm 3 mps 714 mmHg 42%
    08:00 +22°C° 0 mm 4 mps 714 mmHg 35%
    09:00 +25°C° 0 mm 4 mps 714 mmHg 32%
    10:00 +26°C° 0 mm 4 mps 714 mmHg 28%
    11:00 +27°C° 0 mm 5 mps 714 mmHg 25%
    12:00 +28°C° 0 mm 5 mps 714 mmHg 25%
    13:00 +28°C° 0 mm 5 mps 714 mmHg 25%
    14:00 +29°C° 0 mm 5 mps 714 mmHg 24%
    15:00 +28°C° 0 mm 6 mps 713 mmHg 25%
    16:00 +28°C° 0 mm 6 mps 713 mmHg 26%
    17:00 +27°C° 0 mm 6 mps 713 mmHg 27%
    18:00 +25°C° 0 mm 5 mps 713 mmHg 32%
    19:00 +22°C° 0 mm 5 mps 713 mmHg 37%
    20:00 +20°C° 0 mm 4 mps 713 mmHg 42%
    21:00 +19°C° 0 mm 3 mps 712 mmHg 45%
    22:00 +18°C° 0 mm 2 mps 712 mmHg 49%
    23:00 +16°C° 0 mm 2 mps 712 mmHg 53%
    Mostrar más